Flag for U.S.A. Weather past 2 weeks in Fort Worth, Texas, U.S.A.

Now
95 °F

Sunny.


Feels Like: 97 °F
Forecast: 77 / 97 °F
Wind: 14 mph from Southeast

Location: Meacham International Airport

Current Time: Aug 27, 2014 at 6:41:46 PM

Latest Report: Aug 27, 2014 at 5:53 PM


Visibility: 10 mi

Pressure: 29.91 "Hg

Humidity: 36%

Dew point: 64 °F

Location of Fort WorthLocation

Historic Weather in Fort Worth — Graph

°F

Fort Worth temperature yesterday

Maximum temperature yesterday: 100 °F (at 3:53 PM)
Minimum temperature yesterday: 81 °F (at 5:53 AM)
Average temperature yesterday: 90 °F

Past Weeks' High & Low Weather Summary

 TemperatureHumidityPressure
High102 °F (Aug 22, 3:53 PM)90% (Aug 17, 6:53 AM)30.09 "Hg (Aug 17, 6:53 AM)
Low72 °F (Aug 14, 6:53 AM)23% (Aug 22, 4:53 PM)29.80 "Hg (Aug 19, 5:53 PM)
Average87 °F51%29.92 "Hg
* Reported Aug 12 4:53 PM — Aug 27 4:53 PM, Fort Worth, Weather by CustomWeather, © 2014

Note: Actual official high and low records may vary slightly from our data, if they occured in-between our weather recording intervals... More about our weather records

Advertising

Fort Worth weather history for previous 24 hours

 ConditionsComfort  
Time TempWeatherWind HumidityBarometerVisibility
4:53 PM
Aug 27
95 °FScattered clouds.9 mph36%29.93 "Hg10 mi
3:53 PM96 °FSunny.13 mph35%29.95 "Hg10 mi
2:53 PM95 °FPassing clouds.12 mph36%29.97 "Hg10 mi
1:53 PM95 °FPassing clouds.10 mph39%29.99 "Hg10 mi
12:53 PM93 °FPartly sunny.8 mph42%30.01 "Hg10 mi
11:53 AM90 °FPassing clouds.9 mph48%30.03 "Hg10 mi
10:53 AM89 °FSunny.7 mph52%30.03 "Hg10 mi
9:53 AM87 °FSunny.5 mph55%30.03 "Hg10 mi
8:53 AM83 °FSunny.3 mph65%30.03 "Hg8 mi
7:53 AM81 °FClear.6 mph69%30.01 "Hg8 mi
6:53 AM79 °FClear.5 mph74%29.99 "Hg9 mi
5:53 AM80 °FClear.5 mph71%29.98 "Hg10 mi
4:53 AM81 °FClear.6 mph67%29.98 "Hg10 mi
3:53 AM82 °FClear.7 mph65%29.98 "Hg10 mi
2:53 AM83 °FClear.7 mph63%29.98 "Hg10 mi
1:53 AM84 °FClear.7 mph61%29.98 "Hg10 mi
12:53 AM85 °FClear.7 mph57%29.99 "Hg10 mi
11:53 PM
Aug 26
87 °FClear.7 mph51%29.98 "Hg10 mi
10:53 PM88 °FClear.7 mph50%29.97 "Hg10 mi
9:53 PM90 °FClear.8 mph47%29.96 "Hg10 mi
8:53 PM92 °FSunny.9 mph41%29.93 "Hg10 mi
7:53 PM93 °FSunny.10 mph38%29.92 "Hg10 mi
6:53 PM96 °FSunny.10 mph37%29.90 "Hg10 mi
Weather by CustomWeather, © 2014

See weather overviewHow to use our weather pages